Regional Weather Roundup
Issued by NWS

Home | Current Version | Previous Version | Graphics & Text | Print | Product List | Glossary On
Versions: 1 2 3 4 5 6 7 8 9 10 11 12 13 14 15 16 17 18 19 20 21 22 23 24 25 26 27 28 29 30 31 32 33 34 35 36 37 38 39 40 41 42 43 44 45 46 47 48 49 50
000
ASUS43 KLMK 241402
RWRKY
KENTUCKY REGIONAL WEATHER ROUNDUP
NATIONAL WEATHER SERVICE LOUISVILLE KY
1000 AM EDT FRI MAR 24 2017

NOTE "FAIR" INDICATES FEW OR NO CLOUDS BELOW 12,000 FEET
WITH NO SIGNIFICANT WEATHER AND/OR OBSTRUCTIONS TO VISIBILITY.

KYZ001>023-026-027-061>063-070>075-241500-
WESTERN AND SOUTH CENTRAL KENTUCKY

CITY           SKY/WX    TMP DP  RH WIND       PRES   REMARKS
PADUCAH        MOSUNNY   65  55  70 S13G23    30.15R
HENDERSON      SUNNY     64  54  68 S15       30.15R
OWENSBORO      SUNNY     63  53  70 S15       30.19R
HOPKINSVILLE   SUNNY     65  53  65 S16G24    30.20R
BOWLING GREEN  SUNNY     65  50  58 S20G25    30.24R
GLASGOW        NOT AVBL
$$

KYZ024-025-028>034-038-045-046-053-241500-
NORTH CENTRAL KENTUCKY

CITY           SKY/WX    TMP DP  RH WIND       PRES   REMARKS
LOUISVILLE/SDF MOSUNNY   64  44  48 S16G22    30.21R
LOUISVILLE/LOU SUNNY     62  45  53 S14G20    30.23R
FORT KNOX      SUNNY     62  48  59 S14G28    30.20R
$$

KYZ035>037-039>044-047>052-055>060-089>105-241500-
NORTHEAST KENTUCKY

CITY           SKY/WX    TMP DP  RH WIND       PRES   REMARKS
LEXINGTON      PTSUNNY   61  43  51 S21       30.24S
COVINGTON      PTSUNNY   60  46  59 SW16G23   30.20R
FRANKFORT      SUNNY     63  45  51 S20       30.22S
$$

KYZ054-064>069-076>088-106>120-241500-
SOUTHEAST KENTUCKY

CITY           SKY/WX    TMP DP  RH WIND       PRES   REMARKS
JACKSON        SUNNY     61  42  49 VRB7      30.29S
LONDON         SUNNY     61  41  47 S14G21    30.30S
SOMERSET       NOT AVBL
MIDDLESBORO    SUNNY     58  38  48 S9        30.37F
MONTICELLO     SUNNY     63  48  58 VRB5      30.31S
$$




USA.gov is the U.S. government's official web portal to all federal, state and local government web resources and services.